Location: Igri�s
(42.2144°N, 0.4320°W)
Time: 12:04:59
(UTC+00:00)

OBJECT-B - Pass Details

Date: 13 August 2020
Orbit: 422 x 433 km, 97.0° (Epoch: 21 September)

Event Time Altitude Azimuth Distance (km) Brightness Sun altitude
Exits shadow 20:53:54 10° 209° (SSW) 1,558 3.5 -18.2°
Reaches altitude 10° 20:53:59 10° 210° (SSW) 1,532 3.5 -18.2°
Maximum altitude 20:56:40 23° 265° (W) 966 3.0 -18.6°
Drops below altitude 10° 20:59:22 10° 320° (NW) 1,539 4.8 -19.0°
Sets 21:01:40 0° 335° (NNW) 2,409 5.8 -19.3°
